Regional Weather Roundup
Issued by NWS Upton, NY

Current Version | Previous Version | Graphics & Text | Print | Product List | Glossary Off
Versions: 1 2 3 4 5 6 7 8 9 10 11 12 13 14 15 16 17 18 19 20 21 22 23 24 25 26 27 28

000
ASUS41 KOKX 190805
RWROKX

REGIONAL WEATHER ROUNDUP
NATIONAL WEATHER SERVICE NEW YORK NY
400 AM EDT SAT APR 19 2014

NOTE: "FAIR" INDICATES FEW OR NO CLOUDS BELOW 12,000 FEET WITH NO
SIGNIFICANT WEATHER AND/OR OBSTRUCTIONS TO VISIBILITY.

NYZ071-072-176-178-NJZ106-104-190900-
NEW YORK CITY METRO AREA


CITY           SKY/WX    TMP DP  RH WIND       PRES   REMARKS
CENTRAL PARK   MOCLDY    43  33  68 CALM      30.25F
LAGUARDIA APRT CLOUDY    42  32  67 SW5       30.23F
KENNEDY INTL   MOCLDY    41  35  79 SW10      30.25F
NEWARK/LIBERTY CLOUDY    39  33  79 SW5       30.23F
TETERBORO      MOCLDY    42  33  70 SW3       30.23S
$$

NYZ177-179-078>081-190900-
LONG ISLAND NEW YORK

CITY           SKY/WX    TMP DP  RH WIND       PRES   REMARKS
FARMINGDALE    MOCLDY    38  35  89 S3        30.24F
ISLIP          MOCLDY    39  34  82 SW3       30.22F
SHIRLEY        MOCLDY    38  35  89 SW3       30.24F
WESTHAMPTON    MOCLDY    31  27  85 CALM      30.25S
MONTAUK POINT    N/A     40  37  89 SW3       30.24F
$$

NYZ052-065-067-190900-
HUDSON VALLEY

CITY           SKY/WX    TMP DP  RH WIND       PRES   REMARKS
WHITE PLAINS   MOCLDY    38  32  79 CALM      30.21F
NEWBURGH       PTCLDY    39  32  75 CALM      30.22S
MONTGOMERY     PTCLDY    35  30  82 S5        30.21R WCI  31
POUGHKEEPSIE   PTCLDY    37  31  78 VRB3      30.20S
ALBANY         PTCLDY    39  27  62 CALM      30.21R
$$

NJZ001-105-106-008-010-013-015-019>022-104-190900-
NEW JERSEY

CITY           SKY/WX    TMP DP  RH WIND       PRES   REMARKS
NEWARK/LIBERTY CLOUDY    39  33  79 SW5       30.23F
TETERBORO      MOCLDY    42  33  70 SW3       30.23S
CALDWELL       MOCLDY    39  32  76 CALM      30.23F
MORRISTOWN     MOCLDY    39  36  87 CALM      30.23S
SOMERVILLE     MOCLDY    35  32  88 CALM      30.23S
LINDEN         FAIR      41  35  78 CALM      30.26S
SUSSEX         MOCLDY    37  32  82 CALM      30.23R
ANDOVER          N/A     38  35  89 CALM      30.23R
TRENTON        MOCLDY    39  35  86 SW3       30.24F
MILLVILLE      CLOUDY    37  36  96 CALM      30.26R
ATLANTIC CITY  CLOUDY    35  33  92 N5        30.26S WCI  31
WRIGHTSTOWN    CLOUDY    37  35  94 SW1       30.23F
TOMS RIVER     CLOUDY    34  28  80 CALM      30.26F
BELMAR         CLOUDY    37  30  75 SW7       30.24F WCI  32
$$

PAZ047>061-062-071-190900-
EASTERN PENNSYLVANIA

CITY           SKY/WX    TMP DP  RH WIND       PRES   REMARKS
PHILADELPHIA   CLOUDY    43  37  79 W6        30.27S
ALLENTOWN      MOCLDY    41  33  73 NW3       30.24S
SCRANTON       MOCLDY    38  32  79 CALM      30.24R
$$

CTZ002-004>006-009-010-012-RIZ004-006-007-MAZ004-011-015-190900-
SOUTHERN NEW ENGLAND
 IN CT

CITY           SKY/WX    TMP DP  RH WIND       PRES   REMARKS
BRADLEY INTL   MOCLDY    38  31  76 S7        30.20S WCI  33
HARTFORD       MOCLDY    40  34  79 S6        30.22S
DANBURY        MOCLDY    38  33  82 W3        30.22S
WTRBRY/OXFORD  MOCLDY    36  28  75 W3        30.23R
BRIDGEPORT     MOCLDY    41  37  86 SW10      30.22F
MERIDEN        MOCLDY    39  34  82 S3        30.22S
NEW HAVEN      MOCLDY    42  36  79 SW6       30.23S
CHESTER        FAIR      37  36  93 SW3       30.21F
GROTON         MOCLDY    39  37  92 W5        30.22F
WILLIMANTIC    MOCLDY    38  33  82 S3        30.22S

 IN RI

CITY           SKY/WX    TMP DP  RH WIND       PRES   REMARKS
PROVIDENCE     MOCLDY    38  34  85 SW6       30.21F WCI  33
BLOCK ISLAND   MOCLDY    39  34  81 W10       30.22S WCI  32
WESTERLY       MOCLDY    40  37  89 SW8       30.22F WCI  34

 IN MA

CITY           SKY/WX    TMP DP  RH WIND       PRES   REMARKS
BOSTON         MOCLDY    38  33  82 SW7       30.20S WCI  33
WORCESTER      PTCLDY    35  29  78 W13       30.16S WCI  26
WESTFIELD      PTCLDY    33  31  92 CALM      30.19F
PROVINCETOWN     N/A     39  37  93 MISG      30.20F
NANTUCKET      MOCLDY    38  34  85 NW5       30.21F WCI  34
$$

ANZ330-335-338-340-345-350-353-355-190900-
COASTAL MARINE OBSERVATIONS


STATION/POSITION TIME  SKY/WX   TEMP    WIND        PRES    VSBY  WAVE
                                AIR SEA DIR/SP/G                  HT/PER
                 (UTC)          (F)     (DEG/KT/KT) (MB)    (MI)  (FT/S)
NY HARB ENTRANCE 0800            42 43  100/  8/ 10 1024.0
4S FIRE IS       0700               44                N/A           5/10
23SW MTP         0800            41 42  260/ 10/ 12 1023.6          5/ 9
HUDSON CANYON    0700            41 44  300/  4/ 10 1024.5          7/11
EXECUTION ROCKS  0800            42 42  200/  6/  8   N/A
WESTERN LI SOUND 0800            41     210/  8/  8   N/A           1
CENTRAL LI SOUND 0700            40 42  240/ 12/ 14   N/A           1
EASTERN LI SOUND NOT AVBL
ROBBINS REEF     0800            41     230/  5/  7   N/A
$$


>>>>>>>>>>>>>>>>>>>>>>>>>>>> KEY <<<<<<<<<<<<<<<<<<<<<<<<<<<
>                                                          <
>     SKY/WX - SKY CONDITION/PRESENT WEATHER               <
>     TMP    - TEMPERATURE IN FAHRENHEIT                   <
>     DP     - DEWPOINT IN FAHRENHEIT                      <
>     RH     - RELATIVE HUMIDITY IN PERCENT                <
>     WIND   - DIRECTION AND SPEED IN MPH                  <
>     PRES   - MEAN SEA LEVEL PRESSURE IN INCHES OF HG     <
>     WCI    - WIND CHILL INDEX                            <
>     VSB    - VISIBILITY IN MILES                         <
>     HX     - HEAT INDEX                                  <
>     TC     - TEMPERATURE IN CELSIUS                      <
>     VRB    - VARIABLE WIND DIRECTION                     <
>                                                          <
>>>>>>>>>>>>>>>>>>>>>>>>>>>> KEY <<<<<<<<<<<<<<<<<<<<<<<<<<<





USA.gov is the U.S. government's official web portal to all federal, state and local government web resources and services.